When you browse on this site, cookies collect data to enhance your experience and personalize the content and advertising you see.
Visit our Privacy Policy to learn more. By continuing to use the site, you agree to this use of cookies and data.
  • In Hungary
  • List of Countries
  • For 7 days
  • Water Temperature
  • Satellite Maps
  • Weather Map
  • News
  • Weather Widgets
  • user-avatar
    Login

    Hourly Weather Langfang

    Today, 20 February, Wednesday

    Time Temperature Precipitation Wind Pressure Humidity
    00:00 -1°C° 0 mm 3 mps 768 mmHg 42%
    01:00 -1°C° 0 mm 3 mps 768 mmHg 37%
    02:00 -2°C° 0 mm 3 mps 768 mmHg 34%
    03:00 -2°C° 0 mm 3 mps 769 mmHg 35%
    04:00 -3°C° 0 mm 2 mps 769 mmHg 35%
    05:00 -3°C° 0 mm 2 mps 769 mmHg 36%
    06:00 -3°C° 0 mm 2 mps 769 mmHg 35%
    07:00 -3°C° 0 mm 2 mps 770 mmHg 35%
    08:00 -4°C° 0 mm 3 mps 770 mmHg 31%
    09:00 -1°C° 0 mm 3 mps 770 mmHg 26%
    10:00 +1°C° 0 mm 3 mps 770 mmHg 21%
    11:00 +3°C° 0 mm 3 mps 770 mmHg 16%
    12:00 +5°C° 0 mm 2 mps 770 mmHg 15%
    13:00 +6°C° 0 mm 2 mps 770 mmHg 13%
    14:00 +7°C° 0 mm 2 mps 770 mmHg 12%
    15:00 +7°C° 0 mm 2 mps 770 mmHg 12%
    16:00 +8°C° 0 mm 1 mps 770 mmHg 12%
    17:00 +8°C° 0 mm 1 mps 770 mmHg 12%
    18:00 +7°C° 0 mm 1 mps 770 mmHg 14%
    19:00 +6°C° 0 mm 1 mps 770 mmHg 16%
    20:00 +5°C° 0 mm 1 mps 771 mmHg 18%
    21:00 +4°C° 0 mm 1 mps 771 mmHg 20%
    22:00 +4°C° 0 mm 1 mps 771 mmHg 22%
    23:00 +3°C° 0 mm 1 mps 772 mmHg 24%

    Tomorrow, 21 February, Thursday

    Time Temperature Precipitation Wind Pressure Humidity
    00:00 +3°C° 0 mm 1 mps 772 mmHg 26%
    01:00 +2°C° 0 mm 1 mps 772 mmHg 28%
    02:00 +2°C° 0 mm 1 mps 772 mmHg 30%
    03:00 +1°C° 0 mm 1 mps 771 mmHg 31%
    04:00 +1°C° 0 mm 1 mps 771 mmHg 32%
    05:00 +1°C° 0 mm 1 mps 771 mmHg 33%
    06:00 +1°C° 0 mm 1 mps 771 mmHg 33%
    07:00 +1°C° 0 mm 1 mps 771 mmHg 33%
    08:00 +1°C° 0 mm 1 mps 771 mmHg 33%
    09:00 +3°C° 0 mm 1 mps 771 mmHg 29%
    10:00 +5°C° 0 mm 1 mps 771 mmHg 26%
    11:00 +7°C° 0 mm 1 mps 771 mmHg 22%
    12:00 +9°C° 0 mm 1 mps 770 mmHg 20%
    13:00 +10°C° 0 mm 1 mps 769 mmHg 19%
    14:00 +10°C° 0 mm 2 mps 768 mmHg 17%
    15:00 +10°C° 0 mm 2 mps 768 mmHg 17%
    16:00 +12°C° 0 mm 2 mps 768 mmHg 17%
    17:00 +12°C° 0 mm 1 mps 767 mmHg 17%
    18:00 +10°C° 0 mm 1 mps 767 mmHg 20%
    19:00 +9°C° 0 mm 1 mps 768 mmHg 22%
    20:00 +7°C° 0 mm 0 mps 768 mmHg 24%
    21:00 +6°C° 0 mm 0 mps 768 mmHg 25%
    22:00 +5°C° 0 mm 0 mps 768 mmHg 26%
    23:00 +5°C° 0 mm 0 mps 768 mmHg 28%

    Day after tomorrow, 22 February, Friday

    Time Temperature Precipitation Wind Pressure Humidity
    00:00 +5°C° 0 mm 1 mps 768 mmHg 29%
    01:00 +5°C° 0 mm 1 mps 768 mmHg 30%
    02:00 +4°C° 0 mm 1 mps 767 mmHg 31%
    03:00 +4°C° 0 mm 1 mps 767 mmHg 31%
    04:00 +4°C° 0 mm 1 mps 767 mmHg 31%
    05:00 +3°C° 0 mm 2 mps 767 mmHg 31%
    06:00 +3°C° 0 mm 2 mps 767 mmHg 31%
    07:00 +3°C° 0 mm 2 mps 767 mmHg 30%
    08:00 +3°C° 0 mm 2 mps 768 mmHg 30%
    09:00 +4°C° 0 mm 2 mps 768 mmHg 28%
    10:00 +6°C° 0 mm 2 mps 768 mmHg 25%
    11:00 +7°C° 0 mm 3 mps 768 mmHg 22%
    12:00 +8°C° 0 mm 3 mps 768 mmHg 20%
    13:00 +9°C° 0 mm 3 mps 768 mmHg 19%
    14:00 +10°C° 0 mm 3 mps 767 mmHg 17%
    15:00 +10°C° 0 mm 3 mps 768 mmHg 17%
    16:00 +10°C° 0 mm 2 mps 768 mmHg 18%
    17:00 +10°C° 0 mm 2 mps 768 mmHg 18%
    18:00 +9°C° 0 mm 2 mps 769 mmHg 20%
    19:00 +8°C° 0 mm 1 mps 769 mmHg 22%
    20:00 +7°C° 0 mm 1 mps 770 mmHg 24%
    21:00 +7°C° 0 mm 1 mps 770 mmHg 25%
    22:00 +6°C° 0 mm 1 mps 770 mmHg 27%
    23:00 +6°C° 0 mm 1 mps 771 mmHg 28%

    23 February, Saturday

    Time Temperature Precipitation Wind Pressure Humidity
    00:00 +5°C° 0 mm 1 mps 771 mmHg 29%
    01:00 +5°C° 0 mm 1 mps 771 mmHg 30%
    02:00 +4°C° 0 mm 1 mps 771 mmHg 31%
    03:00 +4°C° 0 mm 1 mps 771 mmHg 32%
    04:00 +3°C° 0 mm 1 mps 771 mmHg 33%
    05:00 +3°C° 0 mm 1 mps 771 mmHg 34%
    06:00 +3°C° 0 mm 1 mps 771 mmHg 34%
    07:00 +3°C° 0 mm 1 mps 771 mmHg 34%
    08:00 +2°C° 0 mm 0 mps 771 mmHg 33%
    09:00 +4°C° 0 mm 0 mps 771 mmHg 29%
    10:00 +7°C° 0 mm 0 mps 771 mmHg 25%
    11:00 +9°C° 0 mm 0 mps 771 mmHg 21%
    12:00 +11°C° 0 mm 1 mps 770 mmHg 19%
    13:00 +12°C° 0 mm 2 mps 769 mmHg 17%
    14:00 +13°C° 0 mm 2 mps 769 mmHg 16%
    15:00 +13°C° 0 mm 2 mps 768 mmHg 16%
    16:00 +12°C° 0 mm 3 mps 768 mmHg 15%
    17:00 +12°C° 0 mm 3 mps 767 mmHg 15%
    18:00 +10°C° 0 mm 3 mps 768 mmHg 17%
    19:00 +9°C° 0 mm 2 mps 768 mmHg 19%
    20:00 +8°C° 0 mm 2 mps 768 mmHg 21%
    21:00 +7°C° 0 mm 2 mps 768 mmHg 22%
    22:00 +6°C° 0 mm 2 mps 768 mmHg 23%
    23:00 +6°C° 0 mm 2 mps 768 mmHg 24%

    24 February, Sunday

    Time Temperature Precipitation Wind Pressure Humidity
    00:00 +5°C° 0 mm 2 mps 768 mmHg 25%
    01:00 +4°C° 0 mm 3 mps 768 mmHg 27%
    02:00 +3°C° 0 mm 3 mps 767 mmHg 28%
    03:00 +4°C° 0 mm 2 mps 767 mmHg 29%
    04:00 +3°C° 0 mm 2 mps 767 mmHg 30%
    05:00 +4°C° 0 mm 1 mps 766 mmHg 31%
    06:00 +4°C° 0 mm 1 mps 766 mmHg 31%
    07:00 +4°C° 0 mm 1 mps 766 mmHg 30%
    08:00 +3°C° 0 mm 0 mps 766 mmHg 30%
    09:00 +6°C° 0 mm 1 mps 766 mmHg 27%
    10:00 +8°C° 0 mm 1 mps 766 mmHg 24%
    11:00 +9°C° 0 mm 1 mps 766 mmHg 21%
    12:00 +10°C° 0 mm 1 mps 766 mmHg 20%
    13:00 +11°C° 0 mm 1 mps 765 mmHg 19%
    14:00 +12°C° 0 mm 1 mps 764 mmHg 18%
    15:00 +12°C° 0 mm 1 mps 764 mmHg 18%
    16:00 +11°C° 0 mm 0 mps 764 mmHg 18%
    17:00 +11°C° 0 mm 0 mps 764 mmHg 18%
    18:00 +10°C° 0 mm 0 mps 764 mmHg 19%
    19:00 +10°C° 0 mm 1 mps 765 mmHg 21%
    20:00 +9°C° 0 mm 1 mps 765 mmHg 22%
    21:00 +8°C° 0 mm 1 mps 766 mmHg 24%
    22:00 +7°C° 0 mm 1 mps 766 mmHg 26%
    23:00 +7°C° 0 mm 1 mps 767 mmHg 28%

    25 February, Monday

    Time Temperature Precipitation Wind Pressure Humidity
    00:00 +6°C° 0 mm 1 mps 767 mmHg 30%
    01:00 +5°C° 0 mm 2 mps 767 mmHg 31%
    02:00 +4°C° 0 mm 2 mps 767 mmHg 33%
    03:00 +4°C° 0 mm 2 mps 767 mmHg 36%
    04:00 +2°C° 0 mm 3 mps 767 mmHg 38%
    05:00 +2°C° 0 mm 3 mps 768 mmHg 41%
    06:00 +2°C° 0 mm 3 mps 768 mmHg 41%
    07:00 +2°C° 0 mm 3 mps 769 mmHg 41%
    08:00 +2°C° 0 mm 3 mps 769 mmHg 41%
    09:00 +3°C° 0 mm 3 mps 769 mmHg 36%
    10:00 +5°C° 0 mm 3 mps 769 mmHg 30%
    11:00 +7°C° 0 mm 4 mps 770 mmHg 25%
    12:00 +8°C° 0 mm 3 mps 769 mmHg 24%
    13:00 +9°C° 0 mm 3 mps 769 mmHg 22%
    14:00 +10°C° 0 mm 3 mps 768 mmHg 21%
    15:00 +9°C° 0 mm 3 mps 768 mmHg 22%
    16:00 +9°C° 0 mm 3 mps 768 mmHg 23%
    17:00 +7°C° 0 mm 4 mps 768 mmHg 23%
    18:00 +7°C° 0 mm 3 mps 768 mmHg 26%
    19:00 +5°C° 0 mm 3 mps 769 mmHg 28%
    20:00 +5°C° 0 mm 2 mps 769 mmHg 31%
    21:00 +5°C° 0 mm 2 mps 769 mmHg 32%
    22:00 +5°C° 0 mm 1 mps 770 mmHg 34%
    23:00 +5°C° 0 mm 1 mps 770 mmHg 36%
    Show more